Location: McFarlands Corners
(41.4117°N, 81.3382°W)
Time: 17:28:33
(UTC+00:00)

SR - Pass Details

Date: 24 February 2026
Orbit: 572 x 849 km, 66.7° (Epoch: 12 March)

Event Time Altitude Azimuth Distance (km) Brightness Sun altitude
Rises 09:01:26 0° 234° (SW) 2,773 - -35.2°
Reaches altitude 10° 09:03:48 10° 244° (WSW) 1,893 - -34.8°
Maximum altitude 09:07:36 32° 309° (NW) 1,035 - -34.1°
Exits shadow 09:11:34 10° 12° (NNE) 1,980 ? -33.4°
Drops below altitude 10° 09:11:37 10° 13° (NNE) 1,994 ? -33.4°
Sets 09:14:10 0° 23° (NNE) 2,948 ? -33.0°
